Location: ?????
(55.6500°N, 37.2500°E)
Time: 12:01:24
(UTC+00:00)

Meteor 2-10 Rocket - Pass Details

Date: 19 May 2025
Orbit: 733 x 881 km, 81.2° (Epoch: 13 June)

Event Time Altitude Azimuth Distance (km) Brightness Sun altitude
Rises 21:17:25 0° 345° (NNW) 3,427 8.6 -14.4°
Reaches altitude 10° 21:19:51 10° 348° (NNW) 2,505 7.5 -14.4°
Maximum altitude 21:25:34 69° 72° (ENE) 936 4.0 -14.4°
Enters shadow 21:30:04 17° 154° (SSE) 2,064 5.2 -14.4°
